Regional Weather Roundup
Issued by NWS

Home | Current Version | Previous Version | Text Only | Print | Product List | Glossary Off
Versions: 1 2 3 4 5 6 7 8 9 10 11 12 13 14 15 16 17 18 19 20 21 22 23 24 25 26 27 28 29 30 31 32 33 34 35 36 37 38 39 40 41 42 43 44 45 46 47 48 49 50

000
ASUS45 KCYS 280610
RWRWY

WYOMING REGIONAL WEATHER ROUNDUP
NATIONAL WEATHER SERVICE CHEYENNE WY
1200 AM MDT TUE JUL 28 2015

NOTE:  "FAIR" INDICATES FEW OR NO CLOUDS BELOW 12,000 FEET
WITH NO SIGNIFICANT WEATHER AND/OR OBSTRUCTIONS TO VISIBILITY.

WYZ001-280700-
YELLOWSTONE NATIONAL PARK

CITY           SKY/WX    TMP DP  RH WIND       PRES   REMARKS
LK YELLOWSTONE   N/A     35  32  88 VRB6      30.26S WCI  30
6HR MIN TEMP:  35; 6HR MAX TEMP:  45; 6HR PCP:  0.10;

W YELLOWSTONE  NOT AVBL

$$
WYZ002>013-054>058-071-098>099-280700-
NORTHERN WYOMING

CITY           SKY/WX    TMP DP  RH WIND       PRES   REMARKS
JACKSON        CLOUDY    43  37  81 SW3       30.24F
CODY           FAIR      55  34  44 W14G26    30.06R
GREYBULL       FAIR      54  46  74 SW5       30.01R
6HR MIN TEMP:  53; 6HR MAX TEMP:  65; 6HR PCP: TRACE;

WORLAND        FAIR      50  45  83 SE6       30.02R
6HR MIN TEMP:  50; 6HR MAX TEMP:  67;

SHERIDAN       FAIR      52  45  77 W13       29.97R
6HR MIN TEMP:  52; 6HR MAX TEMP:  63; 6HR PCP:  0.15;

BUFFALO        FAIR      50  44  80 N12G24    29.99R
6HR MIN TEMP:  50; 6HR MAX TEMP:  78; 6HR PCP:  0.01;

GILLETTE       FAIR      51  46  83 NW8       29.95S
6HR MIN TEMP:  49; 6HR MAX TEMP:  78;

HULETT         FAIR      54  46  76 SW6       29.95R
NEWCASTLE      FAIR      55  45  67 NW16G26   29.94R

$$
WYZ014>020-022>026-101>103-280700-
CENTRAL WYOMING

CITY           SKY/WX    TMP DP  RH WIND       PRES   REMARKS
BIG PINEY      FAIR      40  27  59 E6        30.26R
6HR MIN TEMP:  39; 6HR MAX TEMP:  62;

PINEDALE       FAIR      37  32  81 NW9       30.26S WCI  31
DUBOIS         FAIR      41  32  70 NW15G26   30.18S
LANDER         FAIR      58  24  27 VRB5      30.07S
6HR MIN TEMP:  56; 6HR MAX TEMP:  76;

RIVERTON       FAIR      54  32  43 NW18      30.08R
6HR MIN TEMP:  54; 6HR MAX TEMP:  76;

CASPER         FAIR      52  31  44 W8        30.05R
6HR MIN TEMP:  51; 6HR MAX TEMP:  83;

DOUGLAS        FAIR      60  44  55 NW9       30.02R
6HR MIN TEMP:  60; 6HR MAX TEMP:  88;


$$
WYZ021-027>030-104>119-280700-
SOUTHERN WYOMING

CITY           SKY/WX    TMP DP  RH WIND       PRES   REMARKS
EVANSTON       FAIR      50  33  52 W8        30.29R
6HR MIN TEMP:  50; 6HR MAX TEMP:  64;

KEMMERER       FAIR      46  25  42 NW9G17    30.28R
FORT BRIDGER   CLEAR     50  34  53 W7        30.30R
ROCK SPRINGS   FAIR      56  31  38 W17G23    30.22R
6HR MIN TEMP:  56; 6HR MAX TEMP:  71;

DIXON          FAIR      55  31  40 NE5       30.26R
RAWLINS        FAIR      55  28  35 W14G24    30.19R
6HR MIN TEMP:  55; 6HR MAX TEMP:  75;

SARATOGA       FAIR      52  30  43 W8        30.24R
LARAMIE        FAIR      58  31  35 NW18G28   30.16R
6HR MIN TEMP:  57; 6HR MAX TEMP:  82;

CHEYENNE       FAIR      66  34  30 NW25G39   30.04R
6HR MIN TEMP:  66; 6HR MAX TEMP:  90;

TORRINGTON     FAIR      73  38  27 W12G22    29.89R
6HR MIN TEMP:  70; 6HR MAX TEMP:  84;

PINE BLUFFS    FAIR      66  36  32 N8        29.98R

$$



USA.gov is the U.S. government's official web portal to all federal, state and local government web resources and services.